THOR ABLESTAR DEB, 414

Orbit data source: Space-Track

THOR ABLESTAR DEB, 414 is space debris in LEO originally from a launch on Thu, 29 Jun 1961 UTC launched from the Air Force Eastern Test Range (AFETR). Debris objects in space refer to the collection of defunct objects orbiting the Earth. Examples of debris include non-operational satellites, rocket bodies, and fragments generated from explosions, collisions, or faulty payload assembly.

Loading next visibility...
Identifier
414, 1961-015EP
Orbit
LEO
Last TLE update
13 hours ago
Origin
Manufacturer
Unknown
Mission
Spacecraft
Bus & Motor
Unknown
Mass
Unknown
Launch date (UTC)
1961-06-29 (64 years ago)
Launch vehicle
Unknown
Launch site
Air Force Eastern Test Range (AFETR)
Object type
Payload
Rocket body
Debris
Shape & HBR
Unknown
Radar Cross Section
Medium (>0.1 m² and <1 m²)

Expand to show TLE details & history

TLE from 13 hours ago
0 THOR ABLESTAR DEB
1 00414U 61015EP  25128.76329928  .00000056  00000-0  13199-3 0  9993
2 00414  66.4462   6.3489 0048228 352.4974  67.8878 13.77509420206322
Epoch: 2025-05-08T18:19Z
Definitive object data (Epoch: 2025-05-08T18:19:09.057Z)
Latitude
53.33902°
Longitude
-99.63245°
Altitude
967.39 km
Speed
7.38 km/s
True Right ascension
02h 47m 56s
True Declination
53° 10' 44"
Sunlit
Object was in daylight at TLE epoch
Visualization TLE readout
Latitude
45.03429°
Longitude
17.73415°
Altitude
1,004.704 km
Speed
7.341 km/s
Apparent Right ascension
07h 00m 05s
Apparent Declination
11° 37' 33"
Sunlit
Object is in daylight
Visualization observer readout
Local Sidereal Time
14:59:53
Azimuth
298.892° NW
Elevation
-14.226°
Doppler factor
1
Orbital elements
Apogee altitude
1,006.622 km
Perigee altitude
935.734 km
Semi-major axis
7,349.315 km
Eccentricity
0.0048228
Inclination
66.4462°
RAAN
6.3489°
Arg. of periapsis
352.4974°
True anomaly
68.40096°
Mean anomaly
67.8878°
Eccentric anomaly
68.14426°
Mean motion
3.44487 °/min
BSTAR
0.00013199
Orbital period
104.5 mins
Loading maneuver chart data...
Loading SW <> Apogee altitude chart data...

THOR ABLESTAR DEB Visibility forecast

Observer location: undefined°, undefined°

Span
Click to sort rows by Start time (UTC) header in descending order
Start Az.
Max El. time (UTC)
Max El. Az.
Max El.
End time (UTC)
End Az.
11 mins2025-05-09 16:46:59.575Z183.511° SSW2025-05-09 16:52:59.575Z101.181° ESE36.096°2025-05-09 16:57:59.575Z42.334° NE
9 mins2025-05-09 18:35:59.575Z256.139° W2025-05-09 18:39:59.575Z305.274° NW27.314°2025-05-09 18:44:59.575Z8.2° NNE
11 mins2025-05-10 01:56:59.575Z342.839° N2025-05-10 02:01:59.575Z62.369° ENE39.204°2025-05-10 02:07:59.575Z132.814° SE
9 mins2025-05-10 03:44:59.575Z299.081° NW2025-05-10 03:48:59.575Z252.572° W23.889°2025-05-10 03:53:59.575Z200.233° SSW
|